Temp
73 71 74 73 72 73 75 74 74 77 73 73 73 73 72 72 71 70 70 70 70 73 76 76 77 74 73 74 74 73 73 71 72
69 72 73 74 74 74 75 75 77 75 72 71 72 75 72 71 71 70 71 71 71 73 73 75 74 74 74 74 74 74 72 70 71
67 71 72 73 74 73 75 74 75 74 70 69 72 73 75 75 74 73 72 70 71 71 72 73 72 73 73 73 75 74 72 71 71
67 68 71 73 72 72 74 71 71 71 70 68 69 70 75 76 74 74 73 72 71 72 72 72 73 73 72 73 75 75 71 71 71
68 70 71 71 71 71 70 69 70 69 70 69 70 74 72 75 75 75 73 73 72 72 71 71 72 72 72 72 73 73 72 72 73
69 70 68 68 69 68 68 70 71 70 71 70 70 70 72 72 73 75 75 75 76 72 72 71 71 71 70 71 71 72 72 72 71
68 68 67 65 65 65 65 67 67 68 69 69 68 67 68 70 72 72 72 72 72 72 72 71 69 70 70 70 69 69 70 71 70
68 67 66 65 64 64 65 66 67 69 69 69 69 68 67 69 71 72 71 71 69 69 69 70 70 69 68 69 69 72 67 69 70
68 67 67 67 65 65 65 66 67 68 69 69 69 69 70 71 71 70 70 71 70 69 68 68 68 69 68 68 70 69 67 70 71
69 68 68 66 65 64 64 65 65 65 66 67 67 68 69 69 68 69 68 69 69 70 69 68 67 67 68 68 70 68 68 70 70
69 70 68 66 64 64 63 63 63 64 64 65 66 66 66 67 67 66 66 68 68 69 69 69 67 66 67 68 69 66 65 68 70
72 71 69 67 65 64 63 63 63 62 62 63 66 66 67 67 68 67 67 67 67 66 65 65 64 65 66 67 68 61 61 64 67
71 70 67 65 64 63 62 62 61 61 61 62 61 62 64 65 65 66 66 65 65 65 66 66 66 67 66 66 65 60 60 62 66
69 69 67 66 66 65 63 62 61 60 60 61 63 63 64 64 64 63 63 64 65 65 66 65 63 62 61 61 61 59 58 60 65
67 66 65 67 65 64 63 63 62 61 62 64 65 66 67 66 64 65 65 65 63 63 65 64 62 61 60 60 59 58 57 58 59
67 67 67 67 65 62 63 63 64 63 64 64 64 63 64 65 65 65 65 65 65 64 65 63 61 61 59 59 59 58 56 55 58
67 67 66 66 64 62 62 63 64 64 65 64 64 63 62 64 62 60 60 61 62 63 63 62 62 60 59 59 59 59 59 58 58
67 67 66 66 63 62 61 62 62 63 63 63 63 63 61 61 60 58 55 51 52 56 53 53 60 61 59 59 58 58 54 56 59
66 65 64 63 61 61 60 61 61 62 62 62 62 61 61 59 57 53 55 55 53 49 47 46 46 47 54 54 50 48 47 46 47
64 65 64 63 62 61 61 60 60 61 61 62 64 62 61 57 55 54 53 54 55 54 52 47 45 44 47 47 46 44 43 44 46
MSLP
1007.14 1007.80 1008.27 1008.81 1009.15 1009.70 1010.21 1010.79 1011.21 1011.68 1012.36 1013.02 1013.40 1013.81 1014.13 1014.48 1014.78 1015.18 1015.44 1015.73 1016.03 1016.26 1016.27 1016.20 1016.01 1016.29 1016.72 1017.08 1017.31 1017.40 1017.78 1018.22 1018.28
1006.87 1007.37 1007.89 1008.16 1008.54 1009.02 1009.65 1010.19 1010.56 1011.15 1011.82 1012.33 1012.73 1013.12 1013.70 1014.04 1014.39 1014.60 1014.84 1015.05 1015.35 1015.71 1015.83 1015.74 1015.71 1015.82 1016.37 1016.64 1016.88 1017.18 1017.66 1018.28 1018.34
1006.83 1007.18 1007.47 1007.68 1008.14 1008.49 1009.12 1009.65 1010.18 1010.94 1011.57 1011.86 1012.18 1012.74 1013.14 1013.50 1013.79 1013.87 1014.02 1014.51 1014.87 1015.18 1015.39 1015.69 1015.78 1015.95 1016.10 1016.37 1016.53 1016.84 1017.22 1017.70 1018.02
1006.32 1006.81 1007.17 1007.38 1007.65 1008.27 1008.87 1009.57 1010.01 1010.53 1011.30 1011.76 1012.03 1012.36 1012.65 1012.90 1013.19 1013.46 1013.67 1014.05 1014.25 1014.58 1014.84 1015.08 1015.35 1015.50 1015.75 1016.02 1016.14 1016.27 1016.73 1017.20 1017.62
1006.26 1006.47 1006.95 1007.25 1007.48 1007.96 1008.67 1009.22 1009.74 1010.15 1010.82 1011.23 1011.33 1011.57 1012.16 1012.31 1012.45 1012.83 1013.10 1013.38 1013.78 1014.16 1014.44 1014.66 1014.89 1015.26 1015.63 1015.85 1015.84 1015.87 1016.26 1016.63 1017.01
1006.11 1006.50 1006.78 1006.98 1007.49 1008.02 1008.43 1008.92 1009.44 1009.88 1010.18 1010.39 1010.78 1011.26 1011.56 1011.83 1011.86 1012.17 1012.49 1012.75 1013.30 1013.88 1014.13 1014.39 1014.62 1014.98 1015.22 1015.60 1015.76 1015.74 1015.83 1016.04 1016.48
1005.77 1006.24 1006.98 1007.56 1008.04 1008.33 1008.47 1008.77 1009.17 1009.42 1009.54 1009.82 1010.33 1010.78 1011.08 1011.25 1011.40 1011.81 1012.31 1012.80 1013.22 1013.77 1013.70 1013.89 1014.26 1014.44 1014.68 1015.01 1015.49 1015.61 1015.73 1015.85 1016.05
1005.86 1006.51 1007.47 1007.99 1008.34 1008.66 1008.80 1008.99 1009.07 1009.02 1009.10 1009.36 1009.70 1010.07 1010.44 1010.42 1010.62 1011.24 1011.90 1011.79 1012.13 1013.76 1014.00 1013.59 1013.52 1014.12 1014.60 1014.83 1015.25 1015.55 1015.62 1015.84 1015.81
1005.74 1006.58 1007.67 1008.60 1008.82 1008.81 1008.96 1009.04 1008.95 1008.89 1009.02 1009.09 1009.31 1009.66 1009.67 1009.76 1010.02 1010.66 1011.35 1011.49 1012.12 1012.83 1013.06 1013.17 1013.45 1013.53 1013.90 1014.53 1014.84 1014.90 1015.10 1015.25 1015.33
1005.46 1006.49 1007.50 1008.54 1008.47 1008.88 1009.36 1009.57 1009.45 1009.44 1009.47 1009.34 1009.34 1009.46 1009.47 1009.63 1009.97 1009.98 1010.42 1010.94 1011.70 1011.94 1012.17 1012.29 1012.89 1013.10 1013.61 1013.80 1013.92 1014.15 1014.26 1014.34 1014.61
1004.93 1005.90 1007.11 1007.50 1008.26 1008.69 1008.77 1009.34 1009.69 1009.74 1009.74 1009.71 1009.81 1009.81 1009.73 1009.80 1010.06 1010.26 1010.51 1010.73 1011.03 1011.29 1011.68 1012.14 1012.48 1013.00 1013.44 1013.68 1013.44 1013.58 1013.51 1013.59 1013.66
1004.07 1005.05 1006.16 1007.21 1008.17 1008.39 1009.02 1009.58 1009.81 1009.90 1010.13 1010.19 1010.14 1010.01 1010.00 1010.18 1010.29 1010.42 1010.78 1011.29 1011.46 1011.67 1012.07 1012.35 1012.64 1012.74 1012.94 1012.91 1012.71 1013.10 1013.17 1013.33 1013.26
1004.38 1005.12 1006.06 1006.91 1007.83 1008.43 1009.23 1009.69 1009.80 1010.10 1010.44 1010.48 1010.54 1010.51 1010.53 1010.47 1010.46 1010.68 1010.97 1011.27 1011.55 1011.84 1012.02 1012.14 1012.15 1012.09 1012.23 1012.18 1012.43 1012.94 1013.31 1013.20 1013.10
1004.10 1004.71 1005.65 1006.76 1007.50 1008.15 1008.87 1009.42 1009.79 1010.22 1010.48 1010.72 1010.75 1010.90 1011.13 1011.22 1011.12 1011.19 1011.36 1011.59 1011.73 1011.80 1011.88 1012.09 1012.23 1012.47 1012.79 1012.49 1012.58 1012.97 1013.07 1012.95 1012.89
1003.95 1004.82 1006.07 1006.94 1007.70 1008.43 1008.94 1009.50 1009.90 1010.41 1010.56 1010.69 1010.96 1011.22 1011.37 1011.53 1011.62 1011.60 1011.56 1011.66 1011.87 1011.92 1012.04 1012.40 1012.78 1013.02 1013.21 1013.21 1012.67 1012.68 1013.02 1013.33 1012.82
1003.84 1004.62 1005.81 1006.82 1007.72 1008.55 1009.20 1009.61 1009.90 1010.35 1010.54 1010.76 1011.14 1011.44 1011.61 1011.75 1011.78 1011.95 1012.05 1012.10 1012.23 1012.44 1012.62 1012.88 1013.17 1013.30 1013.38 1013.46 1012.98 1012.98 1012.40 1012.59 1012.78
1004.03 1005.08 1006.16 1006.91 1007.82 1008.70 1009.31 1009.51 1009.79 1009.99 1010.49 1010.80 1011.28 1011.57 1011.84 1012.06 1012.19 1012.38 1012.58 1012.61 1012.54 1012.89 1013.08 1013.22 1013.32 1013.50 1013.63 1013.40 1013.22 1012.84 1012.52 1013.58 1014.02
1003.77 1004.91 1006.06 1006.96 1007.94 1008.77 1009.35 1009.59 1009.81 1010.13 1010.51 1010.62 1011.27 1011.82 1012.10 1012.33 1012.63 1012.84 1013.15 1013.52 1013.73 1013.68 1013.70 1013.79 1013.72 1013.64 1013.68 1013.80 1013.88 1013.98 1014.21 1014.43 1014.56
1003.66 1005.00 1006.14 1007.15 1008.15 1008.79 1009.36 1009.62 1009.92 1010.26 1010.45 1010.62 1011.16 1011.90 1012.31 1012.55 1012.99 1013.32 1013.61 1013.92 1014.07 1014.12 1014.06 1013.84 1013.86 1013.78 1013.96 1014.38 1014.41 1014.59 1014.71 1014.87 1014.89
1004.04 1005.34 1006.45 1007.20 1007.98 1008.70 1009.30 1009.67 1009.95 1010.18 1010.43 1010.65 1011.10 1011.65 1012.14 1012.68 1013.18 1013.63 1013.91 1014.12 1014.25 1014.40 1014.59 1014.31 1014.17 1014.43 1014.60 1014.77 1014.98 1014.97 1015.07 1015.32 1015.22
Wind_Speed
13 10 13 14 17 16 16 15 16 16 14 13 13 12 11 9 8 6 5 6 5 6 7 8 8 7 6 6 6 5 4 2 3
13 14 12 15 15 15 15 15 18 17 13 11 11 13 8 8 8 7 8 8 5 5 6 6 6 6 6 6 6 6 5 4 5
8 10 11 12 12 14 13 12 14 10 8 13 11 10 9 9 10 9 8 6 8 7 7 6 7 7 7 7 7 7 6 5 5
9 10 10 10 11 11 12 8 10 10 9 10 10 8 10 11 10 10 8 9 8 8 6 6 7 7 7 8 8 8 6 5 5
5 7 8 8 8 9 9 10 11 12 10 11 12 12 11 12 10 10 10 11 9 8 7 6 7 6 6 6 8 7 7 7 6
8 6 5 6 6 8 7 8 9 12 12 13 10 9 9 11 10 11 13 12 11 8 8 6 6 5 6 7 8 7 7 8 7
7 8 7 5 5 5 5 6 7 7 8 8 7 8 9 9 11 10 7 4 5 6 8 8 7 7 8 7 6 6 6 7 7
10 11 7 5 5 4 5 5 4 4 6 7 8 10 11 16 12 9 9 8 5 0 5 6 6 6 6 5 5 7 8 7 7
12 13 10 7 6 5 4 3 1 2 2 2 5 9 12 12 11 11 11 11 13 9 6 4 3 6 8 7 7 11 13 12 9
14 14 12 11 9 8 7 5 2 3 2 1 2 4 7 6 6 9 9 12 11 12 11 8 7 4 4 8 9 13 16 15 8
15 14 11 8 7 6 7 5 4 4 3 4 3 1 1 1 3 5 4 6 8 8 9 12 7 6 6 6 6 14 15 16 10
17 16 12 10 7 6 7 7 5 6 5 4 4 4 4 3 2 4 5 5 4 3 3 3 4 5 9 10 7 9 9 9 7
8 11 12 13 10 8 7 6 7 7 6 5 4 3 3 4 4 3 4 5 5 4 3 4 2 4 8 9 7 7 4 3 3
10 14 14 12 11 11 8 7 7 7 6 5 4 4 4 4 3 2 0 3 2 3 4 3 4 5 4 3 6 4 1 5 2
15 15 14 12 11 8 7 6 6 6 5 5 5 4 4 4 4 2 2 2 2 2 4 4 2 2 0 2 3 5 6 2 1
15 18 15 12 11 8 6 6 6 6 5 6 6 5 5 5 4 4 3 3 3 2 3 4 3 2 2 2 1 2 11 8 6
15 13 14 10 11 8 6 5 6 5 7 7 6 5 5 4 4 4 4 3 3 3 2 2 2 2 2 1 2 4 6 3 3
15 14 11 12 11 8 7 6 7 7 6 7 6 4 4 5 3 4 4 4 4 3 2 2 1 1 2 2 3 1 1 3 3
15 14 12 11 9 9 7 7 7 6 6 6 7 5 4 4 4 3 3 2 3 8 7 5 5 6 3 2 4 7 5 7 9
13 12 13 12 13 10 8 7 6 6 6 6 6 5 5 4 4 4 4 3 3 3 5 10 12 9 7 6 6 7 8 8 7
Wind_Direction
187 183 190 187 184 188 192 185 183 191 189 190 193 194 197 196 193 182 195 201 194 199 201 215 214 200 196 214 220 218 199 236 240
176 178 190 196 190 194 189 185 189 192 188 194 194 200 197 195 204 192 192 202 195 213 209 211 208 189 194 208 210 213 194 214 254
162 184 181 195 195 197 189 188 191 186 180 194 195 195 204 209 211 211 203 186 202 202 214 207 192 206 200 209 203 204 204 202 221
178 177 191 195 195 202 197 172 183 188 190 186 197 196 213 214 207 211 203 205 206 211 207 203 205 209 205 215 210 198 194 217 225
193 170 194 209 201 185 179 177 184 197 201 204 207 207 206 215 208 206 203 212 206 200 209 211 207 206 216 221 219 191 194 209 209
170 161 146 190 189 195 195 194 193 199 206 209 206 193 200 214 212 209 216 215 209 195 199 213 210 197 196 217 216 199 198 199 207
144 122 117 119 116 131 154 156 184 200 206 197 179 180 204 221 218 218 223 214 222 198 203 200 214 203 201 210 213 211 212 198 206
144 128 134 120 123 118 120 134 166 186 204 198 191 190 206 224 224 199 182 131 71 249 247 225 197 204 222 206 199 223 209 222 219
153 143 151 170 165 140 129 122 19 349 347 245 185 199 211 216 212 205 194 172 171 164 193 160 198 203 201 213 223 237 221 216 216
157 155 161 176 162 162 151 144 124 44 31 13 193 214 232 219 205 210 176 173 184 193 200 173 179 186 215 218 224 230 233 218 217
154 157 176 159 149 158 123 128 113 110 77 50 55 57 328 57 167 168 191 185 198 194 201 209 182 183 209 234 233 232 234 232 221
168 174 166 161 164 140 128 137 134 106 83 76 53 34 27 37 98 135 159 192 193 127 158 196 205 210 213 220 239 216 230 220 209
167 153 157 148 147 123 131 150 138 122 113 100 83 58 26 14 47 88 115 130 142 150 191 200 235 259 249 241 161 156 190 228 217
157 154 145 141 144 147 155 152 138 125 130 135 144 111 94 70 24 347 301 159 153 170 144 96 86 85 25 58 104 79 281 227 223
146 139 140 147 143 153 154 158 142 148 163 165 148 145 125 102 84 74 81 188 186 200 127 120 124 121 152 327 106 112 82 293 46
156 150 151 150 148 142 161 165 167 160 156 135 130 118 105 91 73 55 62 93 108 121 144 147 158 169 151 159 337 112 81 53 48
143 145 150 143 135 140 158 176 159 147 142 135 129 124 117 98 91 77 45 40 44 86 107 133 135 141 172 119 41 35 55 83 95
146 145 139 146 145 147 150 144 132 135 148 137 129 122 141 119 111 102 89 60 24 23 46 355 44 155 138 120 121 116 105 142 140
141 140 140 140 146 142 149 144 142 153 163 149 136 148 166 136 119 110 104 108 88 47 22 22 66 29 83 50 108 121 107 112 109
129 134 145 153 155 153 150 147 154 164 169 161 156 157 156 143 141 148 153 153 143 120 19 35 34 41 52 66 116 94 93 95 88